Weather History for KPVB - April, 2013

Change the Weather History Date:

Monday, April 15, 2013

  Actual Average (KDBQ) Record (KDBQ)
Temperature  
Mean Temperature 45 °F 48 °F  
Max Temperature 53 °F 59 °F 86 °F (1896)
Min Temperature 37 °F 38 °F 21 °F (1928)
Degree Days  
Heating Degree Days 20 17  
Month to date heating degree days 297  
Since 1 July heating degree days 6608  
Cooling Degree Days 0 0  
Month to date cooling degree days 0  
Year to date cooling degree days 0  
Moisture  
Dew Point 39 °F    
Average Humidity 80    
Maximum Humidity 100    
Minimum Humidity 54    
Precipitation  
Precipitation 0.08 in 0.12 in 2.08 in (1930)
Month to date precipitation 1.71  
Year to date precipitation 6.73  
Snow  
Snow 0.00 in 0.10 in - ()
Month to date snowfall 1.4  
Since 1 July snowfall 41.3  
Snow Depth -    
Sea Level Pressure  
Sea Level Pressure 29.81 in    
Wind  
Wind Speed 10 mph (WSW)    
Max Wind Speed 22 mph    
Max Gust Speed 31 mph    
Visibility 9 miles    
Events      
T = Trace of Precipitation, MM = Missing Value Source: NWS Daily Summary

Daily Weather History Graph

Daily Weather History Graph

Search for Another Location

Airport or City:

Trip Planner

Search our weather history database for the weather conditions in past years. The results will help you decide how hot, cold, wet, or windy it might be!

Date:

Astronomy

Apr. 15, 2013 Rise Set
Actual Time 6:19 AM CDT 7:44 PM CDT
Civil Twilight 5:50 AM CDT 8:13 PM CDT
Nautical Twilight 5:15 AM CDT 8:49 PM CDT
Astronomical Twilight 4:37 AM CDT 9:26 PM CDT
Moon 9:42 AM CDT (4/15) 12:00 AM CDT (4/15)
Length of Visible Light 14h 23m
Length of Day
13h 24m
Waxing Crescent, 25% of the Moon is Illuminated
Apr 15
Waxing Crescent
Apr 18
First Quarter
Apr 25
Full
May 2
Last Quarter
May 9
New

Hourly Weather History & Observations

Time (CDT) Temp. Windchill Dew Point Humidity Pressure Visibility Wind Dir Wind Speed Gust Speed Precip Events Conditions
12:15 AM 50.0 °F - 48.2 °F 94% 29.61 in 7.0 mi West 10.4 mph - 0.01 in   Overcast
12:35 AM 50.0 °F - 48.2 °F 94% 29.61 in 7.0 mi WNW 10.4 mph - 0.03 in   Overcast
12:55 AM 50.0 °F - 48.2 °F 94% 29.62 in 7.0 mi WNW 5.8 mph - 0.04 in   Overcast
1:15 AM 50.0 °F - 46.4 °F 87% 29.63 in 10.0 mi Calm Calm - 0.01 in   Overcast
1:35 AM 50.0 °F - 46.4 °F 87% 29.64 in 10.0 mi SSW 3.5 mph - 0.01 in   Overcast
1:55 AM 50.0 °F - 46.4 °F 87% 29.65 in 10.0 mi South 5.8 mph - 0.01 in   Overcast
2:15 AM 46.4 °F 42.4 °F 44.6 °F 93% 29.68 in 7.0 mi SW 8.1 mph - N/A   Overcast
2:35 AM 46.4 °F 41.9 °F 44.6 °F 93% 29.69 in 10.0 mi WSW 9.2 mph - N/A   Overcast
2:55 AM 46.4 °F 44.3 °F 44.6 °F 93% 29.69 in 10.0 mi SW 4.6 mph - N/A   Overcast
3:15 AM 46.4 °F 43.5 °F 44.6 °F 93% 29.71 in 7.0 mi SSW 5.8 mph - N/A   Overcast
3:35 AM 46.4 °F 43.5 °F 44.6 °F 93% 29.71 in 10.0 mi SW 5.8 mph - N/A   Overcast
3:55 AM 46.4 °F 42.9 °F 42.8 °F 87% 29.71 in 10.0 mi SSW 6.9 mph - N/A   Overcast
4:15 AM 44.6 °F 40.7 °F 42.8 °F 93% 29.71 in 10.0 mi SW 6.9 mph - N/A   Scattered Clouds
4:35 AM 44.6 °F 40.2 °F 41.0 °F 87% 29.72 in 10.0 mi SSW 8.1 mph - N/A   Clear
5:15 AM 44.6 °F 41.4 °F 42.8 °F 93% 29.71 in 10.0 mi South 5.8 mph - N/A   Mostly Cloudy
5:35 AM 44.6 °F 40.7 °F 42.8 °F 93% 29.70 in 7.0 mi South 6.9 mph - N/A   Scattered Clouds
6:15 AM 42.8 °F 39.3 °F 41.0 °F 93% 29.71 in 0.2 mi South 5.8 mph - N/A   Mostly Cloudy
6:35 AM 42.8 °F 39.3 °F 41.0 °F 93% 29.72 in 0.2 mi South 5.8 mph - N/A   Overcast
7:15 AM 42.8 °F 41.1 °F 42.8 °F 100% 29.74 in 0.2 mi SSW 3.5 mph - N/A   Overcast
7:35 AM 44.6 °F 41.4 °F 42.8 °F 93% 29.75 in 0.2 mi South 5.8 mph - N/A   Overcast
8:15 AM 46.4 °F 43.5 °F 44.6 °F 93% 29.75 in 10.0 mi SSW 5.8 mph - N/A   Scattered Clouds
8:35 AM 46.4 °F 40.7 °F 44.6 °F 93% 29.75 in 10.0 mi SSW 12.7 mph - N/A   Mostly Cloudy
8:55 AM 50.0 °F - 42.8 °F 76% 29.76 in 10.0 mi SSW 15.0 mph - N/A   Mostly Cloudy
9:15 AM 50.0 °F - 42.8 °F 76% 29.76 in 10.0 mi SSW 13.8 mph - N/A   Scattered Clouds
9:35 AM 51.8 °F - 41.0 °F 67% 29.75 in 10.0 mi SSW 17.3 mph 21.9 mph N/A   Clear
9:55 AM 53.6 °F - 41.0 °F 62% 29.76 in 10.0 mi SW 17.3 mph - N/A   Clear
10:15 AM 53.6 °F - 37.4 °F 54% 29.77 in 10.0 mi SW 21.9 mph 31.1 mph N/A   Clear
10:35 AM 50.0 °F - 41.0 °F 71% 29.77 in 10.0 mi WSW 16.1 mph - N/A   Clear
10:55 AM 51.8 °F - 41.0 °F 67% 29.78 in 10.0 mi WSW 12.7 mph 23.0 mph N/A   Clear
11:15 AM 51.8 °F - 39.2 °F 62% 29.79 in 10.0 mi West 21.9 mph - N/A   Scattered Clouds
11:35 AM 50.0 °F - 39.2 °F 66% 29.79 in 10.0 mi West 19.6 mph - N/A   Scattered Clouds
11:55 AM 51.8 °F - 39.2 °F 62% 29.82 in 10.0 mi WSW 20.7 mph 25.3 mph N/A   Mostly Cloudy
12:15 PM 50.0 °F - 37.4 °F 62% 29.83 in 10.0 mi WSW 18.4 mph 24.2 mph N/A   Overcast
12:35 PM 50.0 °F - 37.4 °F 62% 29.84 in 10.0 mi West 20.7 mph 25.3 mph N/A   Overcast
12:55 PM 50.0 °F - 35.6 °F 58% 29.84 in 10.0 mi WSW 20.7 mph 28.8 mph N/A   Overcast
1:15 PM 48.2 °F - 35.6 °F 62% 29.86 in 10.0 mi WSW 15.0 mph - N/A   Overcast
1:35 PM 46.4 °F 38.5 °F 33.8 °F 62% 29.86 in 10.0 mi West 21.9 mph 27.6 mph N/A   Overcast
1:55 PM 44.6 °F 38.1 °F 35.6 °F 71% 29.85 in 10.0 mi West 13.8 mph 24.2 mph N/A   Overcast
2:15 PM 44.6 °F 36.9 °F 37.4 °F 76% 29.88 in 10.0 mi West 18.4 mph - N/A   Overcast
2:35 PM 42.8 °F 34.0 °F 35.6 °F 76% 29.89 in 10.0 mi West 20.7 mph - N/A   Overcast
2:55 PM 41.0 °F 32.5 °F 35.6 °F 81% 29.90 in 7.0 mi West 17.3 mph - N/A   Overcast
3:15 PM 41.0 °F 31.4 °F 33.8 °F 76% 29.90 in 10.0 mi West 21.9 mph 27.6 mph N/A   Overcast
3:35 PM 41.0 °F 32.5 °F 33.8 °F 76% 29.91 in 10.0 mi WSW 17.3 mph - N/A   Overcast
3:55 PM 39.2 °F 30.8 °F 33.8 °F 81% 29.90 in 10.0 mi WSW 15.0 mph 20.7 mph 0.01 in   Overcast
4:15 PM 37.4 °F 30.8 °F 33.8 °F 87% 29.89 in 7.0 mi WSW 9.2 mph - 0.02 in   Overcast
4:35 PM 39.2 °F 33.0 °F 33.8 °F 81% 29.88 in 10.0 mi WSW 9.2 mph - 0.02 in   Overcast
4:55 PM 39.2 °F 33.0 °F 33.8 °F 81% 29.88 in 10.0 mi WSW 9.2 mph - 0.02 in   Overcast
5:35 PM 39.2 °F 33.6 °F 35.6 °F 87% 29.89 in 10.0 mi WSW 8.1 mph - N/A   Overcast
5:55 PM 39.2 °F 33.6 °F 35.6 °F 87% 29.89 in 10.0 mi WSW 8.1 mph - N/A   Overcast
6:15 PM 39.2 °F 33.0 °F 35.6 °F 87% 29.90 in 10.0 mi SW 9.2 mph - N/A   Overcast
6:35 PM 41.0 °F 35.8 °F 35.6 °F 81% 29.89 in 10.0 mi SW 8.1 mph - N/A   Overcast
6:55 PM 41.0 °F 35.2 °F 35.6 °F 81% 29.91 in 10.0 mi SW 9.2 mph - N/A   Overcast
7:15 PM 41.0 °F 35.8 °F 35.6 °F 81% 29.90 in 10.0 mi SW 8.1 mph - N/A   Overcast
7:55 PM 41.0 °F 35.8 °F 35.6 °F 81% 29.91 in 10.0 mi WSW 8.1 mph - N/A   Overcast
8:15 PM 41.0 °F 37.1 °F 35.6 °F 81% 29.92 in 10.0 mi WSW 5.8 mph - N/A   Overcast
8:35 PM 41.0 °F 35.8 °F 35.6 °F 81% 29.92 in 10.0 mi SW 8.1 mph - N/A   Overcast
8:55 PM 41.0 °F 36.4 °F 35.6 °F 81% 29.94 in 10.0 mi WSW 6.9 mph - N/A   Overcast
9:35 PM 41.0 °F 36.4 °F 35.6 °F 81% 29.96 in 10.0 mi West 6.9 mph - N/A   Overcast
9:55 PM 41.0 °F 35.2 °F 35.6 °F 81% 29.97 in 10.0 mi West 9.2 mph - N/A   Overcast
10:35 PM 41.0 °F 35.8 °F 33.8 °F 76% 29.99 in 10.0 mi West 8.1 mph - N/A   Overcast
10:55 PM 41.0 °F 35.2 °F 33.8 °F 76% 29.99 in 10.0 mi West 9.2 mph - N/A   Overcast
11:15 PM 41.0 °F 34.7 °F 32.0 °F 70% 30.00 in 10.0 mi West 10.4 mph - N/A   Overcast
11:35 PM 39.2 °F 33.0 °F 32.0 °F 75% 30.01 in 10.0 mi West 9.2 mph - N/A   Mostly Cloudy
11:55 PM 37.4 °F 30.8 °F 32.0 °F 81% 30.00 in 10.0 mi WNW 9.2 mph - N/A   Mostly Cloudy